Wind_Speed
86 80 73 75 71 66 57 56 55 53 51 50 45 44 50 48 46 47 41 43 40 33 29 31 38 39 40 36 34 39 39 33 30 40 34 36 38 31 31 30 25 19 23 27 21
90 84 81 78 77 72 69 62 60 58 57 51 47 46 44 50 47 46 43 46 43 42 44 43 40 37 36 35 38 39 38 31 41 39 32 33 38 37 33 28 27 21 20 24 25
94 89 85 85 81 79 75 70 60 61 60 56 47 44 45 42 45 52 53 49 50 47 45 42 40 43 45 44 40 36 37 38 44 40 33 34 34 39 39 31 22 25 18 21 23
95 96 93 88 85 83 80 73 70 64 62 62 51 48 45 43 45 47 51 51 46 49 48 43 44 44 44 45 40 46 47 40 38 41 32 35 37 38 38 32 26 25 22 25 18
98 99 99 93 91 87 82 79 76 73 66 62 61 49 46 44 48 44 44 43 46 48 42 38 36 39 42 45 41 40 43 38 43 36 39 37 40 42 38 28 29 30 26 34 22
104 100 100 100 93 89 84 84 78 77 72 66 57 60 47 45 50 45 45 47 44 45 42 38 32 34 38 40 37 38 42 46 45 42 38 43 45 37 31 26 32 34 27 32 29
105 101 101 98 99 91 86 87 84 79 78 73 62 55 52 51 51 47 47 47 45 45 44 37 34 29 35 43 42 40 41 45 46 44 41 44 42 43 31 33 32 34 31 30 33
106 102 102 100 96 93 91 90 86 84 82 80 71 60 46 57 46 49 53 52 48 45 44 38 35 35 37 38 45 48 40 45 48 42 50 42 45 46 35 35 34 37 36 30 33
105 102 101 100 96 96 94 91 91 89 84 81 78 66 55 61 51 54 53 60 49 47 53 43 39 36 37 38 41 39 44 47 46 42 49 46 50 48 31 34 36 38 34 31 30
102 109 101 100 96 97 96 93 90 89 89 82 73 68 62 67 63 61 53 58 54 50 53 52 38 38 40 38 42 47 47 51 47 48 51 50 52 43 37 39 37 41 32 30 31
109 108 102 103 99 98 94 92 92 89 83 81 78 76 71 74 71 67 60 65 61 55 56 53 44 45 41 38 42 47 45 49 51 52 54 50 41 38 35 37 42 38 28 30 33
112 107 105 100 99 97 93 89 85 92 92 86 82 72 74 66 67 69 65 61 66 63 64 51 47 55 41 45 43 45 49 46 50 54 53 52 42 40 39 38 43 33 24 27 30
112 111 105 102 99 94 89 88 89 93 94 87 81 76 74 73 71 71 67 67 67 66 65 60 53 55 50 49 45 49 54 58 59 61 57 50 41 36 39 41 41 34 25 26 30
119 112 109 102 103 89 84 89 91 93 97 91 84 79 77 75 70 69 67 70 67 64 67 54 52 53 50 50 58 57 55 58 55 45 43 43 35 35 38 43 41 35 31 32 31
127 113 106 103 98 90 84 92 92 89 96 87 86 81 84 76 68 73 75 71 66 65 64 53 53 50 51 51 54 52 56 53 45 41 42 42 40 36 42 43 40 34 33 32 29
132 117 110 102 96 86 90 98 96 94 91 84 79 77 77 73 64 69 67 68 68 68 64 55 49 52 52 51 51 51 50 47 46 42 36 48 49 37 41 39 36 37 34 29 28
132 122 113 105 96 92 92 106 106 97 76 75 69 71 71 72 69 66 68 70 71 70 63 58 51 50 49 50 49 54 56 55 50 43 38 46 44 33 39 45 40 39 37 35 35
132 127 118 100 109 101 101 109 112 97 89 74 67 70 69 69 70 69 68 64 65 62 59 56 52 57 53 49 58 59 60 49 44 41 41 45 37 36 41 45 43 39 39 36 38
134 130 123 113 113 115 121 118 99 98 87 86 79 70 69 69 66 68 64 62 65 64 59 57 53 59 53 56 52 57 53 45 48 48 44 44 45 43 42 46 45 38 34 40 47
133 136 123 127 125 133 131 123 99 89 86 90 81 73 64 67 67 65 63 60 62 65 64 58 57 54 53 51 50 53 52 55 55 52 52 51 50 43 42 40 41 37 38 41 44
129 142 139 138 137 136 132 122 108 103 95 89 82 76 74 61 66 67 59 56 54 54 54 54 51 50 52 49 56 56 60 61 62 59 58 51 46 45 38 38 41 45 49 51 51
131 147 149 141 146 144 140 119 116 107 96 94 83 79 66 64 70 61 58 59 65 60 52 53 55 49 48 53 51 59 58 55 53 49 53 54 48 47 48 46 41 41 45 45 46
133 136 146 143 140 142 132 124 120 111 104 97 84 84 74 73 73 60 59 65 65 60 52 57 54 52 47 52 53 53 54 59 61 62 55 52 47 53 52 46 48 49 45 48 51
136 135 154 154 144 135 139 127 123 115 104 101 92 88 79 77 77 75 68 66 62 59 53 58 56 51 48 53 55 57 58 60 61 56 54 50 48 53 57 53 57 58 57 60 57
137 134 160 158 148 139 140 129 117 115 113 101 100 92 88 83 73 68 72 72 71 70 61 63 63 58 56 59 58 58 60 63 62 57 56 52 55 61 60 60 64 64 69 59 53
136 136 138 156 149 146 140 134 129 113 112 101 96 93 91 91 86 76 74 72 72 73 69 66 60 62 63 64 65 67 64 72 69 65 65 64 65 64 62 69 68 69 55 59 69
133 133 131 154 152 147 142 130 117 118 112 104 97 97 95 89 88 84 79 80 78 78 76 73 72 71 76 78 78 71 67 73 76 72 73 69 63 68 70 70 64 58 61 74 79
Wind_Direction
239 239 242 246 242 242 244 249 250 254 260 265 264 262 253 256 267 267 265 269 265 271 272 282 288 287 292 285 293 298 293 288 303 315 310 307 308 304 304 300 315 322 321 320 318
236 241 240 243 243 243 243 241 250 254 262 260 262 265 260 254 255 259 261 264 262 269 277 286 280 279 282 283 288 290 289 290 303 308 297 308 306 302 301 304 317 321 329 317 322
237 234 237 242 243 243 243 245 240 251 253 255 260 262 261 258 258 256 258 263 267 271 276 276 278 281 281 280 285 285 280 292 298 302 291 305 307 301 300 297 308 316 318 315 317
240 236 235 239 241 242 241 241 243 239 246 252 256 260 262 265 264 260 256 261 265 268 271 275 273 278 273 275 280 280 288 291 291 297 287 302 308 306 296 299 302 305 305 302 312
239 238 235 236 241 242 239 240 241 245 237 243 253 255 263 262 262 263 264 266 268 271 271 272 274 279 280 280 278 280 282 281 289 286 288 298 303 306 288 307 306 308 300 316 287
239 239 238 236 237 239 241 239 240 240 244 235 244 253 259 258 262 264 263 263 264 266 268 270 271 279 280 280 281 280 271 281 286 286 284 300 302 301 277 291 302 304 296 318 291
238 239 239 238 237 236 238 240 238 240 242 241 233 241 253 254 257 261 262 261 267 268 268 268 270 271 275 267 268 267 275 286 281 284 282 300 297 302 276 286 300 300 300 309 305
237 236 238 239 236 235 237 238 237 239 240 243 241 233 233 252 255 263 257 260 267 269 271 268 266 265 280 270 271 273 276 276 281 286 288 290 291 305 283 286 295 305 300 298 312
235 236 237 237 236 235 236 238 238 237 238 243 242 239 234 245 242 251 258 262 265 268 269 275 265 273 281 270 268 265 265 275 285 279 284 286 292 303 287 287 291 305 297 291 302
233 238 236 236 234 235 233 236 238 239 238 241 241 244 237 241 239 243 255 260 259 263 272 271 271 275 272 270 264 268 270 273 277 274 279 285 291 293 281 287 291 304 295 282 301
230 233 232 233 235 235 235 235 237 240 240 237 238 238 234 241 245 253 249 250 256 260 265 267 271 268 276 271 268 266 266 270 268 272 277 284 284 281 285 289 294 299 288 278 295
229 231 232 233 234 236 234 235 236 238 236 234 235 236 240 242 243 247 251 253 254 258 264 267 267 263 275 271 267 271 267 268 269 274 279 291 278 288 287 286 294 291 279 278 287
229 229 231 232 234 235 234 235 236 238 237 236 233 233 238 236 240 245 249 251 256 259 263 261 265 269 268 268 269 269 271 271 274 279 281 279 270 285 292 294 297 288 260 258 279
225 226 228 230 233 230 230 233 236 241 239 234 237 231 240 239 233 245 250 254 256 258 263 261 266 264 266 269 265 270 274 275 276 278 278 274 273 283 288 302 297 289 273 266 274
222 222 225 229 232 227 232 236 234 234 239 238 236 231 234 241 237 244 246 251 255 258 261 258 261 262 262 262 266 270 269 268 265 274 273 274 268 277 290 297 294 287 280 274 275
218 218 220 223 224 226 231 233 230 228 232 238 239 239 237 242 241 244 247 249 253 256 256 254 255 255 254 260 266 266 265 270 264 266 275 270 270 286 283 289 288 281 280 276 277
214 213 216 219 220 223 222 232 227 225 226 233 237 239 240 240 241 241 243 245 250 254 256 254 256 254 262 265 259 257 263 267 271 268 268 268 277 292 279 289 291 286 279 274 275
212 211 211 210 216 218 223 231 227 223 227 225 234 236 235 237 240 242 244 245 249 249 251 250 254 255 254 263 263 262 267 274 267 260 263 285 291 281 281 289 290 286 278 272 275
210 207 205 209 210 214 224 229 228 231 229 225 232 231 235 237 238 239 243 242 242 244 249 254 250 252 257 266 264 264 274 259 262 269 280 282 285 283 284 287 289 288 283 271 276
208 204 203 209 211 217 225 227 225 225 223 225 226 227 225 225 231 239 241 242 243 246 249 247 249 249 263 267 265 268 257 262 271 275 274 281 279 279 286 288 296 289 285 282 280
206 204 205 207 213 217 224 224 225 224 225 224 223 223 228 228 234 235 237 240 243 247 249 249 251 254 257 258 256 255 259 263 268 272 275 269 272 283 286 288 287 283 285 287 290
204 203 205 210 216 219 218 219 223 222 226 221 223 223 224 224 227 232 243 242 242 247 249 243 242 252 260 264 263 264 267 268 268 268 264 269 284 283 284 291 279 291 280 280 286
205 203 203 210 213 216 215 217 222 221 224 221 221 222 228 224 227 235 245 249 235 251 253 248 245 251 255 256 262 263 260 259 262 269 277 278 280 277 283 287 280 286 280 284 290
203 202 202 209 210 216 217 215 222 221 221 224 221 221 224 233 230 235 240 232 230 236 249 257 253 254 251 249 252 259 265 268 270 271 276 280 277 271 276 280 286 288 289 289 291
204 204 203 208 210 213 217 216 222 220 222 223 223 221 225 229 225 227 236 234 237 236 244 252 256 257 250 248 252 259 266 270 273 278 275 272 278 278 274 273 284 290 294 295 289
205 205 207 208 209 214 217 216 219 220 221 223 224 226 228 229 232 232 231 231 239 240 238 242 251 252 250 250 255 262 268 269 273 280 271 278 278 272 268 277 283 289 292 292 292
207 206 207 206 209 213 216 216 217 221 220 220 223 226 227 229 233 231 230 235 238 243 245 245 250 250 251 256 261 263 268 265 271 274 276 280 273 271 275 287 292 282 283 290 296
Height
10769 10775 10782 10789 10794 10799 10803 10809 10814 10817 10820 10825 10828 10832 10835 10839 10839 10839 10839 10839 10841 10843 10844 10846 10846 10845 10845 10845 10845 10843 10839 10840 10843 10842 10836 10829 10824 10828 10827 10824 10826 10827 10820 10815 10815
10752 10761 10766 10774 10780 10786 10791 10796 10802 10807 10810 10815 10819 10822 10826 10830 10832 10831 10832 10830 10834 10835 10837 10839 10839 10838 10838 10839 10839 10837 10831 10836 10837 10836 10834 10829 10822 10817 10822 10819 10816 10820 10818 10812 10810
10734 10741 10748 10756 10764 10771 10778 10783 10787 10794 10801 10805 10809 10813 10817 10820 10820 10822 10821 10821 10825 10827 10829 10830 10831 10830 10830 10830 10832 10830 10824 10830 10829 10829 10828 10826 10822 10813 10813 10815 10815 10811 10814 10810 10806
10716 10724 10731 10739 10746 10754 10762 10769 10774 10779 10788 10793 10799 10803 10809 10812 10811 10808 10812 10814 10815 10816 10819 10821 10822 10821 10821 10821 10825 10823 10817 10823 10822 10821 10820 10820 10816 10814 10806 10809 10808 10807 10806 10808 10805
10694 10703 10712 10720 10729 10736 10744 10753 10761 10766 10772 10780 10789 10793 10800 10802 10798 10802 10804 10804 10804 10806 10809 10812 10814 10813 10812 10812 10816 10815 10810 10813 10815 10813 10811 10813 10812 10808 10803 10804 10801 10798 10798 10796 10798
10673 10683 10693 10702 10711 10720 10729 10737 10745 10752 10759 10765 10776 10784 10792 10791 10788 10794 10794 10795 10796 10797 10801 10803 10806 10806 10804 10804 10806 10808 10805 10803 10805 10807 10806 10803 10802 10801 10799 10802 10796 10794 10792 10790 10787
10653 10663 10673 10684 10693 10702 10712 10720 10730 10736 10743 10752 10760 10772 10784 10773 10781 10785 10783 10783 10788 10789 10791 10795 10797 10797 10797 10795 10798 10798 10799 10796 10792 10797 10800 10801 10792 10790 10793 10793 10791 10787 10786 10784 10782
10632 10641 10653 10664 10675 10684 10694 10703 10711 10720 10728 10739 10748 10760 10772 10762 10776 10772 10770 10772 10778 10780 10780 10786 10788 10787 10788 10787 10788 10790 10791 10788 10785 10791 10788 10792 10783 10789 10786 10785 10782 10783 10779 10776 10774
10610 10622 10635 10644 10655 10665 10676 10684 10693 10702 10714 10724 10734 10750 10758 10754 10762 10754 10764 10762 10769 10770 10769 10777 10779 10778 10778 10778 10778 10779 10781 10782 10780 10784 10779 10782 10775 10781 10780 10778 10776 10776 10773 10768 10766
10592 10597 10616 10625 10634 10643 10654 10665 10674 10685 10698 10713 10725 10738 10745 10735 10740 10751 10753 10750 10756 10760 10762 10763 10770 10769 10767 10771 10771 10772 10773 10773 10770 10773 10773 10772 10766 10772 10772 10770 10769 10771 10767 10762 10758
10563 10578 10593 10604 10613 10621 10637 10650 10660 10671 10687 10700 10705 10713 10718 10720 10728 10734 10739 10740 10746 10751 10749 10751 10762 10758 10758 10760 10761 10762 10765 10763 10760 10762 10765 10763 10760 10761 10763 10760 10760 10761 10759 10754 10750
10538 10555 10573 10584 10594 10603 10618 10635 10648 10647 10657 10673 10687 10700 10705 10713 10718 10716 10724 10732 10731 10740 10735 10748 10751 10740 10752 10749 10752 10752 10753 10753 10748 10750 10755 10755 10752 10748 10753 10756 10755 10753 10752 10747 10743
10514 10534 10552 10564 10571 10582 10608 10620 10621 10626 10640 10658 10673 10687 10684 10696 10702 10704 10709 10715 10722 10726 10727 10734 10736 10733 10738 10738 10741 10742 10743 10740 10741 10740 10746 10745 10746 10744 10738 10742 10747 10746 10744 10740 10737
10490 10509 10528 10543 10546 10573 10594 10594 10600 10607 10613 10642 10658 10675 10670 10676 10693 10688 10695 10697 10709 10715 10711 10725 10724 10722 10727 10729 10728 10731 10728 10730 10732 10731 10735 10733 10739 10734 10731 10732 10734 10735 10735 10732 10730
10462 10485 10506 10520 10535 10557 10580 10568 10577 10587 10591 10627 10637 10652 10654 10662 10681 10677 10678 10682 10692 10697 10701 10716 10711 10713 10716 10713 10715 10720 10715 10719 10721 10724 10724 10725 10727 10723 10725 10725 10725 10723 10722 10722 10721
10435 10461 10483 10501 10518 10543 10556 10536 10550 10556 10586 10610 10625 10636 10640 10649 10661 10658 10666 10671 10678 10684 10692 10700 10701 10699 10701 10702 10704 10704 10705 10708 10712 10713 10720 10709 10713 10724 10713 10717 10716 10713 10712 10712 10712
10406 10436 10459 10482 10510 10526 10526 10499 10519 10545 10590 10599 10615 10619 10624 10631 10640 10648 10653 10659 10665 10667 10681 10680 10686 10689 10690 10690 10691 10691 10691 10696 10702 10705 10708 10698 10707 10712 10700 10703 10705 10702 10702 10701 10702
10378 10406 10435 10464 10485 10500 10488 10476 10496 10555 10569 10588 10597 10599 10607 10614 10625 10633 10635 10648 10656 10661 10661 10666 10675 10673 10676 10681 10678 10682 10682 10688 10688 10691 10694 10692 10700 10699 10691 10693 10693 10691 10690 10691 10691
10345 10373 10406 10438 10461 10468 10452 10446 10498 10537 10554 10566 10574 10583 10594 10601 10609 10612 10625 10634 10642 10646 10648 10651 10661 10658 10665 10664 10668 10669 10674 10672 10674 10679 10683 10684 10686 10687 10683 10679 10681 10681 10680 10680 10680
10314 10349 10388 10417 10434 10429 10421 10436 10492 10511 10533 10541 10558 10570 10579 10585 10593 10601 10609 10623 10629 10630 10630 10641 10647 10651 10651 10653 10658 10659 10659 10659 10663 10667 10670 10675 10674 10677 10673 10670 10666 10667 10669 10668 10668
10289 10319 10363 10388 10395 10389 10397 10436 10474 10492 10512 10521 10544 10554 10567 10576 10582 10591 10601 10608 10612 10613 10620 10626 10637 10641 10638 10646 10645 10648 10646 10648 10649 10655 10656 10659 10664 10664 10663 10659 10656 10656 10657 10656 10656
10264 10302 10339 10350 10352 10355 10385 10440 10459 10473 10487 10510 10527 10543 10554 10559 10567 10578 10588 10593 10596 10599 10612 10614 10617 10629 10629 10629 10634 10635 10634 10637 10639 10641 10640 10645 10652 10649 10648 10650 10647 10646 10645 10645 10645
10250 10287 10307 10312 10323 10338 10395 10411 10435 10451 10463 10494 10513 10528 10535 10547 10554 10568 10573 10578 10584 10589 10598 10600 10613 10614 10618 10619 10622 10622 10618 10619 10623 10626 10633 10629 10637 10630 10634 10634 10635 10634 10633 10631 10628
10225 10251 10269 10278 10311 10332 10363 10395 10412 10437 10448 10477 10498 10508 10517 10529 10544 10556 10563 10565 10571 10578 10582 10582 10593 10602 10606 10605 10603 10606 10606 10606 10608 10614 10614 10618 10618 10617 10618 10617 10618 10619 10619 10616 10613
10205 10228 10247 10265 10287 10319 10343 10381 10399 10418 10434 10462 10477 10496 10509 10518 10529 10541 10548 10554 10558 10565 10567 10571 10579 10582 10586 10590 10592 10593 10595 10591 10594 10598 10598 10600 10600 10601 10603 10603 10601 10600 10599 10595 10593
10191 10212 10237 10270 10289 10309 10335 10358 10382 10403 10427 10454 10474 10486 10493 10504 10516 10528 10533 10538 10543 10550 10551 10557 10565 10565 10569 10573 10578 10580 10581 10581 10580 10582 10580 10584 10586 10585 10583 10588 10586 10583 10579 10578 10577
10176 10205 10227 10250 10271 10288 10315 10352 10383 10397 10413 10435 10452 10458 10473 10487 10497 10506 10514 10521 10529 10532 10537 10542 10547 10550 10552 10556 10557 10565 10569 10564 10564 10565 10564 10564 10567 10562 10564 10564 10562 10561 10561 10560 10557